SIA905 WSSS-EGKK

Flight info

Callsign SIA905
Flight time N/A
Altitude 32000
Route VMR6A VMR B469 VPK M751 VKB A334 HTY/N0508F340 W14 PUT L515 OBMOG M770 KAKID M875 DOMET/N0508F360 M875 DI N644 LEMOD A909 NINOP/N0494F380 A909 RODAR M11 REBLO UM11 CRM UL746 ODERO DCT OPT DCT ENIMA/N0487F400 DCT TEGRI DCT ARSIN DCT RENKA DCT INBED DCT BOMBI DCT DENUT L610 TEBRA
Aircraft A388/J-SADE2E3FGHIJ3J4J5M1RWXY/LB1D1

Departure

Time N/A
Airport Singapore Changi Airport (WSSS)

Arrival

Time 2026-05-03 20:28
Airport London Gatwick Airport (EGKK)
Time Latitude Longitude Altitude Speed Heading
2026-05-03 20:15 51.18094 1.07674 13918 ft 325 kts 216°
2026-05-03 20:15 51.16269 1.05531 13903 ft 326 kts 216°
2026-05-03 20:15 51.14442 1.03386 13920 ft 325 kts 216°
2026-05-03 20:15 51.12621 1.01251 13918 ft 324 kts 216°
2026-05-03 20:16 51.10802 0.99118 13916 ft 325 kts 216°
2026-05-03 20:16 51.08986 0.96973 13901 ft 325 kts 218°
2026-05-03 20:16 51.07404 0.94408 13929 ft 326 kts 230°
2026-05-03 20:16 51.06042 0.91507 13863 ft 330 kts 234°
2026-05-03 20:17 51.04798 0.88464 13744 ft 327 kts 237°
2026-05-03 20:17 51.03640 0.85349 13311 ft 326 kts 239°
2026-05-03 20:17 51.02557 0.82203 12764 ft 324 kts 241°
2026-05-03 20:17 51.01525 0.79032 12129 ft 322 kts 242°
2026-05-03 20:18 51.00535 0.75856 11547 ft 320 kts 243°
2026-05-03 20:18 50.99614 0.72703 10961 ft 318 kts 249°
2026-05-03 20:18 50.99393 0.69190 10341 ft 319 kts 279°
2026-05-03 20:18 51.00018 0.65875 9794 ft 318 kts 290°
2026-05-03 20:19 51.00853 0.62594 9212 ft 315 kts 291°
2026-05-03 20:19 51.01712 0.59401 8615 ft 313 kts 292°
2026-05-03 20:19 51.02589 0.56242 8304 ft 318 kts 293°
2026-05-03 20:19 51.03478 0.53099 8098 ft 305 kts 293°
2026-05-03 20:20 51.04317 0.50161 7837 ft 294 kts 293°
2026-05-03 20:20 51.05161 0.47219 7375 ft 291 kts 293°
2026-05-03 20:20 51.06008 0.44306 6873 ft 289 kts 294°
2026-05-03 20:20 51.06906 0.41492 6402 ft 288 kts 296°
2026-05-03 20:21 51.07850 0.38664 5899 ft 286 kts 297°
2026-05-03 20:21 51.08813 0.35934 5652 ft 276 kts 299°
2026-05-03 20:21 51.09773 0.33363 5447 ft 265 kts 300°
2026-05-03 20:21 51.10705 0.30916 5364 ft 251 kts 300°
2026-05-03 20:22 51.11690 0.28701 5242 ft 240 kts 308°
2026-05-03 20:22 51.12759 0.26690 4970 ft 237 kts 310°
2026-05-03 20:22 51.13842 0.24760 4647 ft 236 kts 311°
2026-05-03 20:22 51.14954 0.22802 4265 ft 237 kts 311°
2026-05-03 20:23 51.16059 0.20862 3932 ft 236 kts 308°
2026-05-03 20:23 51.16702 0.18527 3612 ft 229 kts 276°
2026-05-03 20:23 51.17079 0.16099 3258 ft 232 kts 300°
2026-05-03 20:23 51.18116 0.14281 3423 ft 212 kts 310°
2026-05-03 20:24 51.19041 0.12408 3369 ft 224 kts 301°
2026-05-03 20:24 51.19350 0.10029 3148 ft 219 kts 259°
2026-05-03 20:24 51.18932 0.07781 3107 ft 211 kts 251°
2026-05-03 20:24 51.18508 0.05621 3046 ft 197 kts 253°
2026-05-03 20:25 51.18119 0.03583 2960 ft 191 kts 252°
2026-05-03 20:25 51.17729 0.01523 2647 ft 195 kts 254°
2026-05-03 20:25 51.17396 -0.00556 2368 ft 192 kts 257°
2026-05-03 20:25 51.17114 -0.02551 2126 ft 175 kts 257°
2026-05-03 20:26 51.16865 -0.04353 1842 ft 162 kts 258°
2026-05-03 20:26 51.16619 -0.06107 1646 ft 162 kts 257°
2026-05-03 20:26 51.16375 -0.07864 1449 ft 164 kts 258°
2026-05-03 20:26 51.16128 -0.09646 1237 ft 160 kts 257°
2026-05-03 20:27 51.15909 -0.11229 1001 ft 142 kts 256°
2026-05-03 20:27 51.15699 -0.12757 817 ft 139 kts 257°
2026-05-03 20:27 51.15488 -0.14259 640 ft 138 kts 256°
2026-05-03 20:27 51.15286 -0.15721 403 ft 130 kts 256°
2026-05-03 20:28 51.15088 -0.17073 255 ft 122 kts 255°
2026-05-03 20:28 51.14923 -0.18235 214 ft 87 kts 258°
2026-05-03 20:28 51.14838 -0.18917 220 ft 55 kts 259°
2026-05-03 20:28 51.14757 -0.19467 218 ft 48 kts 257°
2026-05-03 20:29 51.14794 -0.19943 218 ft 39 kts 283°
2026-05-03 20:29 51.14895 -0.20146 217 ft 15 kts
2026-05-03 20:29 51.14943 -0.20067 219 ft 7 kts 60°
2026-05-03 20:29 51.14956 -0.19991 219 ft 8 kts 78°
2026-05-03 20:30 51.14970 -0.19879 216 ft 13 kts 79°
2026-05-03 20:30 51.14993 -0.19722 217 ft 17 kts 76°
2026-05-03 20:30 51.15024 -0.19521 219 ft 21 kts 76°
2026-05-03 20:30 51.15058 -0.19277 219 ft 24 kts 78°
2026-05-03 20:31 51.15095 -0.19002 218 ft 26 kts 78°
2026-05-03 20:31 51.15134 -0.18704 215 ft 29 kts 78°
2026-05-03 20:31 51.15160 -0.18512 219 ft 23 kts 78°
2026-05-03 20:31 51.15194 -0.18270 218 ft 16 kts 72°
2026-05-03 20:32 51.15238 -0.18227 215 ft 8 kts 20°
2026-05-03 20:32 51.15306 -0.18249 216 ft 12 kts 346°
2026-05-03 20:32 51.15397 -0.18284 219 ft 13 kts 346°
2026-05-03 20:32 51.15488 -0.18315 211 ft 14 kts 348°
2026-05-03 20:33 51.15585 -0.18347 216 ft 15 kts 348°
2026-05-03 20:33 51.15653 -0.18303 222 ft 8 kts 47°
2026-05-03 20:33 51.15668 -0.18217 217 ft 10 kts 72°
2026-05-03 20:33 51.15725 -0.18170 214 ft 10 kts 11°
2026-05-03 20:34 51.15770 -0.18089 222 ft 10 kts 59°
2026-05-03 20:34 51.15833 -0.18075 218 ft 10 kts 353°
2026-05-03 20:34 51.15898 -0.18072 217 ft 8 kts 20°
2026-05-03 20:34 51.15925 -0.17992 215 ft 6 kts 68°
2026-05-03 20:35 51.15926 -0.17948 211 ft 0 kts 78°
2026-05-03 20:35 51.15927 -0.17945 211 ft 1 kts 78°
2026-05-03 20:35 51.15927 -0.17942 211 ft 0 kts 77°